| time (UTC) | temp F | wind direction | speed MPH | gust MPH | rain 1hr in | rain 24hr in | rain mn in | humidity % | barometer mb |
| 20260504050542 | 66 | 0 | 0.0 | 0.0 | 0.00 | 1.90 | 1.90 | 92 | 1019.6 |
| 20260504045541 | 66 | 0 | 0.0 | 0.0 | 0.00 | 1.90 | 1.90 | 91 | 1019.5 |
| 20260504045041 | 66 | 0 | 0.0 | 0.0 | 0.00 | 1.90 | 1.90 | 90 | 1019.3 |
| 20260504044554 | 66 | 0 | 0.0 | 0.0 | 0.00 | 1.90 | 1.90 | 89 | 1019.4 |
| 20260504044042 | 66 | 0 | 0.0 | 0.0 | 0.00 | 1.90 | 1.90 | 88 | 1019.3 |
| 20260504043542 | 66 | 0 | 0.0 | 0.0 | 0.00 | 1.90 | 1.90 | 87 | 1019.3 |
| 20260504043110 | 66 | 0 | 0.0 | 0.0 | 0.00 | 1.90 | 1.90 | 88 | 1019.3 |
| 20260504042541 | 66 | 0 | 0.0 | 0.0 | 0.00 | 1.90 | 1.90 | 88 | 1019.4 |
| 20260504042043 | 67 | 0 | 0.0 | 0.0 | 0.00 | 1.90 | 1.90 | 88 | 1019.5 |
| 20260504041549 | 67 | 0 | 0.0 | 0.0 | 0.00 | 1.90 | 1.90 | 88 | 1019.5 |
| 20260504041041 | 67 | 0 | 0.0 | 0.0 | 0.00 | 1.90 | 1.90 | 89 | 1019.4 |
| 20260504040544 | 67 | 0 | 0.0 | 0.0 | 0.00 | 1.90 | 1.90 | 87 | 1019.6 |
| 20260504040048 | 67 | 0 | 0.0 | 0.0 | 0.00 | 1.90 | 1.90 | 85 | 1019.7 |
| 20260504035544 | 67 | 0 | 0.0 | 0.0 | 0.00 | 1.90 | 1.90 | 84 | 1019.5 |
| 20260504035042 | 67 | 0 | 0.0 | 0.0 | 0.00 | 1.90 | 1.90 | 84 | 1019.5 |
| 20260504034554 | 66 | 0 | 0.0 | 0.0 | 0.00 | 1.90 | 1.90 | 85 | 1019.5 |
| 20260504034041 | 66 | 0 | 0.0 | 0.0 | 0.00 | 1.90 | 1.90 | 86 | 1019.5 |
| 20260504033542 | 66 | 0 | 0.0 | 0.0 | 0.00 | 1.90 | 1.90 | 89 | 1019.4 |
| 20260504033102 | 66 | 0 | 0.0 | 0.0 | 0.00 | 1.90 | 1.90 | 90 | 1019.3 |
| 20260504032541 | 66 | 0 | 0.0 | 0.0 | 0.00 | 1.90 | 1.90 | 91 | 1019.3 |
| 20260504032042 | 66 | 0 | 0.0 | 0.0 | 0.00 | 1.90 | 1.90 | 92 | 1019.5 |
| 20260504031556 | 66 | 0 | 0.0 | 0.0 | 0.00 | 1.90 | 1.90 | 92 | 1019.7 |
| 20260504031041 | 65 | 0 | 0.0 | 0.0 | 0.00 | 1.90 | 1.90 | 92 | 1019.8 |
| 20260504030541 | 66 | 0 | 0.0 | 0.0 | 0.00 | 1.90 | 1.90 | 94 | 1019.8 |
| 20260504030109 | 66 | 0 | 0.0 | 0.0 | 0.00 | 1.90 | 1.90 | 95 | 1019.7 |
| 20260504025541 | 66 | 0 | 0.0 | 0.0 | 0.00 | 1.90 | 1.90 | 94 | 1019.6 |
| 20260504025041 | 66 | 0 | 0.0 | 0.0 | 0.00 | 1.90 | 1.90 | 94 | 1019.6 |
| 20260504024550 | 66 | 0 | 0.0 | 0.0 | 0.00 | 1.90 | 1.90 | 94 | 1019.7 |
| 20260504024044 | 66 | 0 | 0.0 | 0.0 | 0.00 | 1.90 | 1.90 | 95 | 1019.7 |
| 20260504023542 | 66 | 0 | 0.0 | 0.0 | 0.00 | 1.90 | 1.90 | 96 | 1019.7 |
| 20260504023049 | 66 | 0 | 0.0 | 0.0 | 0.00 | 1.90 | 1.90 | 95 | 1019.7 |
| 20260504022543 | 66 | 0 | 0.0 | 0.0 | 0.00 | 1.90 | 1.90 | 95 | 1019.7 |
| 20260504022042 | 66 | 0 | 0.0 | 0.0 | 0.00 | 1.90 | 1.90 | 96 | 1019.7 |
| 20260504021552 | 66 | 0 | 0.0 | 0.0 | 0.01 | 1.90 | 1.90 | 95 | 1019.8 |
| 20260504021043 | 66 | 0 | 0.0 | 0.0 | 0.03 | 1.90 | 1.90 | 95 | 1019.7 |
| 20260504020543 | 66 | 0 | 0.0 | 0.0 | 0.05 | 1.90 | 1.90 | 95 | 1019.6 |
| 20260504020058 | 66 | 0 | 0.0 | 0.0 | 0.07 | 1.90 | 1.90 | 95 | 1019.5 |
| 20260504015539 | 66 | 0 | 0.0 | 0.0 | 0.07 | 1.90 | 1.90 | 96 | 1019.5 |
| 20260504015039 | 65 | 0 | 0.0 | 0.0 | 0.08 | 1.90 | 1.90 | 95 | 1019.4 |
| 20260504014549 | 65 | 0 | 0.0 | 0.0 | 0.09 | 1.90 | 1.90 | 95 | 1019.4 |
| 20260504014039 | 65 | 0 | 0.0 | 0.0 | 0.14 | 1.90 | 1.90 | 96 | 1019.3 |
| 20260504013543 | 65 | 0 | 0.0 | 0.0 | 0.26 | 1.90 | 1.90 | 96 | 1019.0 |
| 20260504013053 | 65 | 0 | 0.0 | 0.0 | 0.48 | 1.90 | 1.90 | 96 | 1018.9 |
| 20260504012539 | 65 | 0 | 0.0 | 0.0 | 0.71 | 1.90 | 1.90 | 96 | 1018.7 |
| 20260504012039 | 65 | 0 | 0.0 | 0.0 | 0.96 | 1.90 | 1.90 | 96 | 1018.8 |
| 20260504011553 | 65 | 0 | 0.0 | 0.0 | 1.31 | 1.89 | 1.89 | 96 | 1018.8 |
| 20260504011042 | 65 | 0 | 0.0 | 0.0 | 1.44 | 1.87 | 1.87 | 96 | 1019.1 |
| 20260504010540 | 64 | 0 | 0.0 | 0.0 | 1.44 | 1.85 | 1.85 | 96 | 1019.3 |
| 20260504010059 | 64 | 0 | 0.0 | 0.0 | 1.43 | 1.83 | 1.83 | 96 | 1019.4 |
| 20260504005542 | 64 | 0 | 0.0 | 0.0 | 1.43 | 1.83 | 1.83 | 96 | 1019.7 |
| 20260504005042 | 64 | 0 | 0.0 | 0.0 | 1.42 | 1.82 | 1.82 | 95 | 1019.8 |
| 20260504004551 | 64 | 0 | 0.0 | 0.0 | 1.40 | 1.80 | 1.80 | 94 | 1019.9 |
| 20260504004041 | 64 | 0 | 0.0 | 0.0 | 1.36 | 1.76 | 1.76 | 93 | 1019.9 |
| 20260504003541 | 65 | 0 | 0.0 | 0.0 | 1.22 | 1.62 | 1.62 | 93 | 1020.4 |
| 20260504003053 | 65 | 0 | 0.0 | 2.0 | 1.01 | 1.41 | 1.41 | 93 | 1020.5 |
| 20260504002541 | 66 | 0 | 0.0 | 2.0 | 0.77 | 1.16 | 1.16 | 92 | 1020.4 |
| 20260504002041 | 68 | 0 | 0.0 | 2.0 | 0.52 | 0.92 | 0.92 | 89 | 1020.3 |
| 20260504001558 | 70 | 0 | 0.0 | 0.0 | 0.17 | 0.57 | 0.57 | 93 | 1020.3 |
| 20260504001043 | 70 | 0 | 0.0 | 0.0 | 0.03 | 0.43 | 0.43 | 92 | 1019.9 |
| 20260504000541 | 70 | 0 | 0.0 | 0.0 | 0.01 | 0.41 | 0.41 | 91 | 1019.4 |
| 20260504000054 | 70 | 0 | 0.0 | 0.0 | 0.00 | 0.40 | 0.40 | 92 | 1019.3 |
| 20260503235541 | 71 | 0 | 0.0 | 0.0 | 0.00 | 0.40 | 0.40 | 91 | 1019.0 |
| 20260503235042 | 71 | 0 | 0.0 | 0.0 | 0.00 | 0.40 | 0.40 | 91 | 1018.8 |
| 20260503234550 | 70 | 0 | 0.0 | 0.0 | 0.00 | 0.40 | 0.40 | 89 | 1018.6 |
| 20260503234041 | 70 | 0 | 0.0 | 0.0 | 0.00 | 0.40 | 0.40 | 89 | 1018.3 |
| 20260503233540 | 69 | 0 | 0.0 | 0.0 | 0.00 | 0.40 | 0.40 | 92 | 1018.1 |
| 20260503233052 | 69 | 0 | 0.0 | 0.0 | 0.05 | 0.40 | 0.40 | 93 | 1018.0 |
| 20260503232545 | 69 | 0 | 0.0 | 0.0 | 0.15 | 0.40 | 0.40 | 94 | 1017.9 |
| 20260503232041 | 69 | 0 | 0.0 | 0.0 | 0.15 | 0.40 | 0.40 | 95 | 1018.0 |
| 20260503231555 | 69 | 0 | 0.0 | 0.0 | 0.15 | 0.40 | 0.40 | 95 | 1018.0 |
| 20260503231041 | 69 | 0 | 0.0 | 0.0 | 0.15 | 0.40 | 0.40 | 95 | 1018.0 |
| 20260503230542 | 69 | 0 | 0.0 | 0.0 | 0.15 | 0.40 | 0.40 | 95 | 1018.1 |
| 20260503230110 | 70 | 0 | 0.0 | 0.0 | 0.15 | 0.40 | 0.40 | 94 | 1018.3 |
| 20260503225542 | 70 | 0 | 0.0 | 0.0 | 0.15 | 0.52 | 0.40 | 93 | 1018.2 |
| 20260503225041 | 70 | 0 | 0.0 | 0.0 | 0.15 | 0.52 | 0.40 | 93 | 1018.2 |
| 20260503224552 | 71 | 0 | 0.0 | 0.0 | 0.15 | 0.52 | 0.40 | 92 | 1018.4 |
| 20260503224043 | 71 | 0 | 0.0 | 0.0 | 0.15 | 0.52 | 0.40 | 91 | 1018.5 |
| 20260503223541 | 72 | 0 | 0.0 | 0.0 | 0.15 | 0.52 | 0.40 | 89 | 1018.5 |
| 20260503223107 | 73 | 0 | 0.0 | 0.0 | 0.09 | 0.47 | 0.34 | 88 | 1018.6 |
| 20260503222543 | 74 | 0 | 0.0 | 0.0 | 0.00 | 0.38 | 0.25 | 86 | 1018.7 |
| 20260503222041 | 75 | 0 | 0.0 | 0.0 | 0.00 | 0.38 | 0.25 | 84 | 1018.7 |
| 20260503221558 | 75 | 0 | 0.0 | 0.0 | 0.00 | 0.38 | 0.25 | 82 | 1018.6 |
| 20260503221045 | 75 | 0 | 0.0 | 0.0 | 0.00 | 0.38 | 0.25 | 81 | 1018.4 |
| 20260503220542 | 75 | 0 | 0.0 | 0.0 | 0.00 | 0.38 | 0.25 | 80 | 1018.5 |
| 20260503220052 | 75 | 0 | 0.0 | 0.0 | 0.00 | 0.38 | 0.25 | 80 | 1018.5 |
| 20260503215542 | 76 | 0 | 0.0 | 0.0 | 0.00 | 0.38 | 0.25 | 79 | 1018.6 |
| 20260503215041 | 76 | 0 | 0.0 | 0.0 | 0.00 | 0.38 | 0.25 | 77 | 1018.6 |
| 20260503214554 | 77 | 0 | 0.0 | 0.0 | 0.00 | 0.38 | 0.25 | 76 | 1018.4 |
| 20260503214041 | 77 | 0 | 0.0 | 0.0 | 0.00 | 0.38 | 0.25 | 75 | 1018.4 |
| 20260503213541 | 77 | 0 | 0.0 | 0.0 | 0.00 | 0.38 | 0.25 | 78 | 1018.6 |
| 20260503213049 | 76 | 0 | 0.0 | 0.0 | 0.00 | 0.38 | 0.25 | 77 | 1018.7 |
| 20260503212541 | 76 | 0 | 0.0 | 0.0 | 0.00 | 0.38 | 0.25 | 77 | 1018.8 |
| 20260503212041 | 76 | 0 | 0.0 | 0.0 | 0.00 | 0.38 | 0.25 | 79 | 1018.6 |
| 20260503211551 | 76 | 0 | 0.0 | 0.0 | 0.00 | 0.38 | 0.25 | 79 | 1018.6 |
| 20260503211041 | 76 | 0 | 0.0 | 0.0 | 0.00 | 0.38 | 0.25 | 78 | 1018.6 |
| 20260503210539 | 76 | 0 | 0.0 | 0.0 | 0.00 | 0.38 | 0.25 | 77 | 1018.4 |
| 20260503210052 | 76 | 0 | 0.0 | 0.0 | 0.00 | 0.38 | 0.25 | 79 | 1018.5 |
| 20260503205542 | 76 | 0 | 0.0 | 0.0 | 0.00 | 0.38 | 0.25 | 81 | 1018.7 |
| 20260503205042 | 76 | 0 | 0.0 | 0.0 | 0.00 | 0.38 | 0.25 | 82 | 1018.7 |
| 20260503204550 | 76 | 0 | 0.0 | 0.0 | 0.00 | 0.38 | 0.25 | 81 | 1018.7 |
| 20260503204041 | 76 | 0 | 0.0 | 0.0 | 0.00 | 0.38 | 0.25 | 82 | 1018.8 |
| 20260503203540 | 76 | 0 | 0.0 | 0.0 | 0.00 | 0.38 | 0.25 | 80 | 1018.8 |
| 20260503203049 | 75 | 0 | 0.0 | 0.0 | 0.00 | 0.38 | 0.25 | 80 | 1018.8 |
| 20260503202541 | 75 | 0 | 0.0 | 0.0 | 0.00 | 0.38 | 0.25 | 84 | 1019.0 |
| 20260503202040 | 74 | 0 | 0.0 | 0.0 | 0.00 | 0.38 | 0.25 | 85 | 1018.9 |
| 20260503201551 | 73 | 0 | 0.0 | 0.0 | 0.00 | 0.38 | 0.25 | 87 | 1018.9 |
| 20260503201313 | 73 | 0 | 0.0 | 0.0 | 0.00 | 0.38 | 0.25 | 87 | 1019.1 |
| 20260503173113 | 78 | 0 | 0.0 | 0.0 | 0.00 | 0.13 | 0.00 | 76 | 1020.8 |
| 20260503110541 | 69 | 0 | 0.0 | 0.0 | 0.00 | 0.13 | 0.00 | 88 | 1018.8 |
| 20260503081548 | 68 | 0 | 0.0 | 0.0 | 0.00 | 0.13 | 0.00 | 87 | 1018.3 |
| 20260503081046 | 68 | 0 | 0.0 | 0.0 | 0.00 | 0.13 | 0.00 | 86 | 1018.4 |
| 20260503080544 | 68 | 0 | 0.0 | 0.0 | 0.00 | 0.13 | 0.00 | 86 | 1018.4 |
| 20260503072539 | 69 | 0 | 0.0 | 0.0 | 0.00 | 0.13 | 0.00 | 85 | 1018.6 |
| 20260503072039 | 69 | 0 | 0.0 | 0.0 | 0.00 | 0.13 | 0.00 | 84 | 1018.7 |
| 20260503071547 | 69 | 0 | 0.0 | 0.0 | 0.00 | 0.13 | 0.00 | 84 | 1018.8 |
| 20260503071042 | 70 | 0 | 0.0 | 0.0 | 0.00 | 0.13 | 0.00 | 83 | 1018.8 |
| 20260503070541 | 70 | 0 | 0.0 | 0.0 | 0.00 | 0.13 | 0.00 | 84 | 1018.9 |